GW1714 Weather Reports


Display with metric or nautical units.
time (UTC)temp
F
wind
direction
speed
MPH
gust
MPH
rain 1hr
in
rain 24hr
in
rain mn
in
humidity
%
barometer
mb
20260507081941 56 180 0.0 0.0 0.00 0.01 0.01 99 1029.6
20260507081438 56 180 0.0 0.0 0.00 0.01 0.01 99 1029.8
20260507080935 56 180 0.0 1.0 0.00 0.01 0.01 99 1030.2
20260507080431 56 180 0.0 1.0 0.00 0.01 0.01 99 1029.7
20260507075926 56 140 0.0 0.0 0.00 0.01 0.01 99 1029.6
20260507075423 56 165 0.0 0.0 0.00 0.01 0.01 99 1029.5
20260507074920 56 157 0.0 1.0 0.00 0.01 0.01 99 1030.0
20260507074416 56 173 0.0 1.0 0.00 0.01 0.01 99 1030.1
20260507073914 56 352 0.0 0.0 0.02 0.01 0.01 99 1030.0
20260507073410 56 180 0.0 0.0 0.02 0.01 0.01 99 1030.0
20260507072908 56 180 0.0 0.0 0.00 0.01 0.01 99 1029.8
20260507072405 56 158 2.0 2.0 0.00 0.01 0.01 99 1029.1
20260507071902 57 160 0.0 0.0 0.00 0.01 0.01 99 1029.7
20260507071359 57 173 0.0 1.0 0.00 0.01 0.01 99 1030.2
20260507070855 57 157 0.0 1.0 0.02 0.01 0.01 99 1030.3
20260507070353 57 168 0.0 0.0 0.00 0.00 0.00 99 1030.3
20260507065850 57 168 0.0 0.0 0.00 0.00 0.00 99 1030.6
20260507065346 57 190 0.0 2.0 0.00 0.00 0.00 99 1030.5
20260507064843 58 206 1.0 2.0 0.00 0.00 0.00 99 1030.5
20260507064342 58 198 0.0 2.0 0.00 0.00 0.00 99 1030.3
20260507063839 59 164 2.0 2.0 0.00 0.00 0.00 99 1029.8
20260507063336 59 186 0.0 2.0 0.00 0.00 0.00 99 1029.8
20260507062832 59 194 0.0 3.0 0.00 0.00 0.00 99 1029.4
20260507062329 60 188 0.0 3.0 0.00 0.00 0.00 99 1029.6
20260507061828 61 201 0.0 2.0 0.00 0.00 0.00 99 1029.6
20260507061325 61 159 2.0 2.0 0.00 0.00 0.00 99 1029.2
20260507060824 61 180 0.0 0.0 0.00 0.00 0.00 99 1029.1
20260507060320 61 188 0.0 0.0 0.00 0.00 0.00 99 1029.3
20260507055817 61 188 0.0 0.0 0.00 0.00 0.00 99 1029.5
20260507055312 61 180 0.0 2.0 0.00 0.00 0.00 99 1030.0
20260507054809 62 169 0.0 3.0 0.00 0.00 0.00 99 1029.6
20260507054305 62 203 1.0 2.0 0.00 0.00 0.00 99 1029.8
20260507053802 62 195 0.0 1.0 0.00 0.00 0.00 99 1029.8
20260507053300 62 180 0.0 0.0 0.00 0.00 0.00 99 1030.1
20260507052759 62 187 0.0 2.0 0.00 0.00 0.00 99 1030.1
20260507052255 62 165 0.0 0.0 0.00 0.00 0.00 99 1029.8
20260507051753 62 165 0.0 0.0 0.02 0.00 0.00 99 1030.0
20260507051249 62 165 0.0 0.0 0.02 0.00 0.00 99 1029.8
20260507050747 62 165 0.0 2.0 0.00 0.00 0.00 99 1030.1
20260507050243 62 180 0.0 2.0 0.00 0.00 0.00 99 1030.2
20260507045740 62 0 0.0 0.0 0.00 0.00 0.00 99 1030.0
20260507045236 62 0 0.0 1.0 0.00 0.00 0.00 99 1029.4
20260507044734 62 353 0.0 2.0 0.00 0.00 0.00 99 1029.4
20260507044230 62 0 1.0 2.0 0.00 0.00 0.00 99 1030.0
20260507043726 62 345 0.0 3.0 0.00 0.00 0.00 99 1030.0
20260507043223 62 0 0.0 0.0 0.00 0.00 0.00 99 1030.3
20260507042719 62 0 0.0 2.0 0.00 0.00 0.00 99 1030.1
20260507042214 62 140 0.0 4.0 0.00 0.00 0.00 99 1029.8
20260507041712 62 165 0.0 2.0 0.00 0.00 0.00 99 1030.4
20260507041208 62 172 0.0 0.0 0.00 0.00 0.00 99 1030.4
20260507040706 62 8 0.0 0.0 0.00 0.00 0.00 99 1030.3
20260507040201 62 8 0.0 0.0 0.00 0.00 0.00 99 1030.1
20260507035657 62 23 2.0 2.0 0.00 0.72 0.72 99 1030.2
20260507035153 62 173 0.0 0.0 0.00 0.72 0.72 99 1030.1
20260507034650 62 173 0.0 0.0 0.02 0.72 0.72 99 1030.2
20260507034148 62 180 0.0 2.0 0.00 0.72 0.72 99 1030.8
20260507033646 62 194 0.0 2.0 0.00 0.72 0.72 99 1030.6
20260507033143 62 324 0.0 2.0 0.00 0.72 0.72 99 1030.3
20260507032641 62 352 2.0 2.0 0.00 0.72 0.72 99 1030.5
20260507032136 62 328 2.0 2.0 0.00 0.72 0.72 99 1030.4
20260507031634 62 328 2.0 3.0 0.00 0.72 0.72 99 1030.7
20260507031130 62 7 0.0 0.0 0.00 0.72 0.72 99 1030.9
20260507030627 62 7 1.0 2.0 0.00 0.72 0.72 99 1030.9
20260507030125 62 148 2.0 3.0 0.02 0.72 0.72 99 1031.2
20260507025622 62 26 0.0 2.0 0.05 0.72 0.72 99 1031.2
20260507025118 62 330 2.0 5.0 0.02 0.72 0.72 99 1031.1
20260507024616 62 66 1.0 2.0 0.02 0.71 0.71 99 1031.5
20260507024113 62 90 0.0 2.0 0.05 0.71 0.71 99 1030.9
20260507023609 62 26 1.0 3.0 0.02 0.71 0.71 99 1030.9
20260507023107 62 345 0.0 1.0 0.00 0.70 0.70 99 1031.1
20260507022603 62 33 0.0 2.0 0.00 0.70 0.70 99 1031.0
20260507022058 62 345 0.0 2.0 0.00 0.70 0.70 99 1030.7
20260507021555 62 0 2.0 2.0 0.00 0.70 0.70 99 1030.9
20260507021051 62 328 2.0 2.0 0.00 0.70 0.70 99 1030.7
20260507020549 62 28 0.0 3.0 0.00 0.70 0.70 98 1030.9
20260507020045 62 341 0.0 2.0 0.00 0.70 0.70 99 1030.9
20260507015544 62 352 0.0 0.0 0.00 0.70 0.70 98 1030.5
20260507015041 62 90 0.0 0.0 0.00 0.70 0.70 98 1030.8
20260507014537 62 81 2.0 3.0 0.00 0.70 0.70 98 1030.8
20260507014033 62 175 2.0 3.0 0.00 0.70 0.70 98 1030.7
20260507013530 62 19 6.0 6.0 0.00 0.70 0.70 98 1030.5
20260507013027 62 15 0.0 2.0 0.00 0.70 0.70 98 1030.2
20260507012524 62 0 0.0 2.0 0.00 0.70 0.70 98 1030.2
20260507012021 62 352 4.0 5.0 0.00 0.70 0.70 98 1029.8
20260507011518 62 350 3.0 6.0 0.02 0.70 0.70 98 1030.4
20260507011014 62 358 4.0 5.0 0.05 0.70 0.70 98 1030.3
20260507010509 63 328 2.0 2.0 0.07 0.70 0.70 98 1030.0
20260507010006 63 173 1.0 5.0 0.09 0.70 0.70 98 1029.7
20260507005503 63 339 4.0 5.0 0.12 0.69 0.69 98 1030.8
20260507004959 63 187 1.0 3.0 0.12 0.68 0.68 98 1032.2
20260507004456 63 270 0.0 1.0 0.07 0.66 0.66 98 1031.6
20260507003954 63 341 2.0 3.0 0.07 0.65 0.65 98 1031.2
20260507003449 63 0 2.0 3.0 0.17 0.65 0.65 98 1031.3
20260507002944 63 0 2.0 3.0 0.21 0.64 0.64 97 1031.4
20260507002441 63 342 0.0 3.0 0.21 0.62 0.62 97 1031.4
20260507001938 63 12 4.0 7.0 0.19 0.59 0.59 97 1031.5
20260507001434 63 39 3.0 5.0 0.19 0.58 0.58 97 1031.3
20260507000932 63 14 0.0 3.0 0.17 0.56 0.56 97 1030.9
20260507000428 63 165 0.0 1.0 0.14 0.54 0.54 97 1030.2
20260506235923 63 33 0.0 2.0 0.14 0.53 0.53 97 1029.8
20260506235421 63 352 0.0 0.0 0.07 0.52 0.52 97 1030.0
20260506234916 64 349 2.0 2.0 0.09 0.51 0.51 97 1030.2
20260506234414 64 352 2.0 4.0 0.14 0.50 0.50 96 1030.2
20260506233912 64 11 2.0 3.0 0.17 0.49 0.49 96 1030.5
20260506233407 64 9 2.0 2.0 0.17 0.48 0.48 95 1030.6
20260506232904 64 160 0.0 3.0 0.12 0.46 0.46 95 1030.4
20260506232400 64 352 0.0 4.0 0.05 0.45 0.45 95 1030.5
20260506231856 64 49 0.0 5.0 0.02 0.44 0.44 96 1030.2
20260506231354 64 352 0.0 2.0 0.00 0.43 0.43 96 1029.7
20260506230851 64 337 0.0 0.0 0.02 0.43 0.43 96 1029.3
20260506230348 64 337 0.0 0.0 0.07 0.43 0.43 95 1029.5
20260506225844 64 345 2.0 3.0 0.07 0.43 0.43 95 1029.6
20260506225342 65 8 2.0 3.0 0.05 0.42 0.42 94 1030.2
20260506224839 65 331 1.0 4.0 0.05 0.42 0.42 93 1029.6
20260506224336 65 31 3.0 3.0 0.02 0.41 0.41 94 1029.7
20260506223832 65 339 2.0 3.0 0.00 0.41 0.41 94 1029.6
20260506223327 64 356 2.0 4.0 0.00 0.41 0.41 95 1029.7
20260506222825 65 345 3.0 6.0 0.00 0.41 0.41 95 1030.0
20260506222320 64 333 3.0 6.0 0.02 0.41 0.41 96 1030.0
20260506221819 64 346 5.0 7.0 0.02 0.41 0.41 96 1029.7
20260506221316 65 358 3.0 5.0 0.05 0.41 0.41 96 1029.8
20260506220813 65 341 2.0 4.0 0.05 0.40 0.40 96 1030.0
20260506220308 66 352 2.0 2.0 0.07 0.40 0.40 96 1029.5
20260506215805 66 0 3.0 3.0 0.07 0.39 0.39 95 1029.6
20260506215301 66 15 0.0 2.0 0.02 0.39 0.39 95 1030.0
20260506214756 66 180 0.0 2.0 0.05 0.38 0.38 95 1029.6
20260506214254 66 180 0.0 2.0 0.09 0.38 0.38 94 1030.0
20260506213752 67 173 1.0 3.0 0.07 0.37 0.37 92 1029.6
20260506213249 68 0 2.0 5.0 0.02 0.36 0.36 88 1029.2
20260506212746 68 346 5.0 9.0 0.00 0.36 0.36 89 1028.8
20260506212242 68 37 4.0 8.0 0.00 0.36 0.36 88 1028.4
20260506211737 68 359 5.0 11.0 0.00 0.36 0.36 89 1028.2
20260506211234 68 340 7.0 15.0 0.00 0.36 0.36 90 1028.2
20260506210731 68 350 7.0 18.0 0.00 0.36 0.36 89 1028.4
20260506210228 68 359 11.0 13.0 0.00 0.36 0.36 89 1028.4
20260506205725 68 337 5.0 12.0 0.00 0.36 0.36 89 1028.2
20260506205220 67 340 5.0 7.0 0.00 0.36 0.36 92 1028.8
20260506204718 67 331 5.0 7.0 0.00 0.36 0.36 91 1028.7
20260506204215 67 350 4.0 6.0 0.00 0.36 0.36 91 1028.9
20260506203713 67 349 3.0 8.0 0.00 0.36 0.36 90 1029.2
20260506203209 67 13 4.0 7.0 0.00 0.36 0.36 92 1029.3
20260506202707 67 1 6.0 8.0 0.02 0.36 0.36 91 1029.3
20260506202203 66 14 4.0 6.0 0.02 0.35 0.35 92 1029.8
20260506201700 66 0 6.0 7.0 0.02 0.35 0.35 91 1030.1
20260506201156 66 343 6.0 6.0 0.02 0.35 0.35 93 1030.0
20260506200654 66 328 6.0 10.0 0.02 0.35 0.35 94 1030.2
20260506200150 66 343 4.0 8.0 0.02 0.35 0.35 95 1029.6
20260506195647 66 346 6.0 9.0 0.05 0.35 0.35 95 1029.6
20260506195143 67 349 7.0 10.0 0.07 0.34 0.34 95 1030.0
20260506194641 67 17 4.0 8.0 0.05 0.34 0.34 94 1030.6
20260506194137 67 24 4.0 7.0 0.00 0.33 0.33 94 1030.3
20260506193635 67 12 2.0 6.0 0.02 0.33 0.33 94 1030.2
20260506193132 68 16 2.0 5.0 0.00 0.33 0.33 94 1030.4
20260506192628 67 15 6.0 10.0 0.00 0.33 0.33 93 1030.3
20260506192124 67 342 3.0 7.0 0.02 0.33 0.33 93 1030.6
20260506191621 68 77 1.0 5.0 0.02 0.33 0.33 93 1030.7
20260506191117 68 0 6.0 10.0 0.00 0.32 0.32 93 1030.5
20260506190615 68 355 1.0 7.0 0.02 0.32 0.32 93 1030.7
20260506190112 69 3 5.0 7.0 0.05 0.32 0.32 91 1030.6
20260506185609 69 30 7.0 8.0 0.00 0.32 0.32 89 1031.0
20260506185105 69 328 2.0 6.0 0.00 0.32 0.32 87 1031.2
20260506184602 70 120 4.0 5.0 0.00 0.32 0.32 86 1031.2
20260506184100 70 11 4.0 7.0 0.00 0.32 0.32 86 1030.8
20260506183556 70 180 0.0 4.0 0.00 0.32 0.32 85 1030.7
20260506183052 70 32 2.0 5.0 0.00 0.32 0.32 86 1030.8
20260506182550 71 172 0.0 4.0 0.00 0.32 0.32 86 1030.9
20260506182047 71 24 0.0 8.0 0.00 0.32 0.32 85 1031.0
20260506181545 70 55 2.0 5.0 0.00 0.32 0.32 86 1030.8
20260506181041 71 112 0.0 5.0 0.00 0.32 0.32 85 1030.9
20260506180538 71 297 1.0 6.0 0.00 0.32 0.32 84 1030.5
20260506180034 71 330 3.0 9.0 0.00 0.32 0.32 83 1030.5
20260506175531 72 206 0.0 5.0 0.00 0.32 0.32 83 1030.6
20260506175027 71 184 3.0 4.0 0.00 0.32 0.32 83 1030.5
20260506174526 72 0 1.0 5.0 0.00 0.32 0.32 82 1030.0
20260506174022 71 215 1.0 3.0 0.00 0.32 0.32 81 1030.1
20260506173520 72 147 3.0 4.0 0.00 0.32 0.32 79 1029.8
20260506173016 72 80 0.0 6.0 0.00 0.32 0.32 79 1030.2
20260506172514 71 15 0.0 8.0 0.00 0.32 0.32 79 1029.8
20260506172010 71 258 2.0 2.0 0.00 0.32 0.32 85 1030.0
20260506171508 70 203 1.0 2.0 0.00 0.32 0.32 86 1030.0
20260506171005 69 32 3.0 4.0 0.00 0.32 0.32 88 1029.7
20260506170501 69 180 2.0 3.0 0.00 0.32 0.32 89 1030.0
20260506165954 69 180 0.0 2.0 0.00 0.32 0.32 92 1029.7
20260506165452 68 180 0.0 2.0 0.00 0.32 0.32 94 1030.0
20260506164942 68 0 0.0 2.0 0.00 0.32 0.32 95 1029.8
20260506164439 68 7 0.0 1.0 0.00 0.32 0.32 95 1029.7
20260506163937 66 0 0.0 4.0 0.00 0.32 0.32 95 1029.8
20260506163432 66 124 2.0 2.0 0.00 0.32 0.32 96 1029.6
20260506162926 66 180 0.0 1.0 0.00 0.32 0.32 96 1030.0
20260506162424 65 166 1.0 4.0 0.00 0.32 0.32 95 1029.8
20260506161916 64 32 0.0 5.0 0.00 0.32 0.32 95 1029.7
20260506161414 64 331 0.0 6.0 0.00 0.32 0.32 95 1029.8
20260506160905 64 331 4.0 6.0 0.00 0.32 0.32 96 1030.1
20260506160402 64 341 7.0 8.0 0.00 0.32 0.32 96 1030.0
20260506155900 64 359 4.0 6.0 0.00 0.32 0.32 97 1030.3
20260506155356 64 328 3.0 9.0 0.00 0.32 0.32 97 1030.1
20260506153514 63 349 6.0 10.0 0.02 0.31 0.31 97 1030.9
20260506153011 63 349 6.0 10.0 0.07 0.31 0.31 97 1030.8
20260506152508 63 6 8.0 8.0 0.07 0.31 0.31 97 1031.8
20260506152006 63 1 6.0 6.0 0.05 0.30 0.30 97 1031.8
20260506151503 63 6 5.0 7.0 0.05 0.29 0.29 97 1032.1
20260506151001 63 0 3.0 9.0 0.02 0.29 0.29 97 1032.3
20260506150456 63 30 2.0 6.0 0.00 0.29 0.29 97 1032.1
20260506145954 63 11 3.0 9.0 0.00 0.29 0.29 97 1031.8
20260506145450 63 39 3.0 6.0 0.02 0.29 0.29 98 1032.2
20260506144948 63 0 5.0 8.0 0.02 0.29 0.29 98 1031.8
20260506144444 63 35 4.0 7.0 0.00 0.28 0.28 98 1031.6
20260506143943 63 29 7.0 9.0 0.02 0.28 0.28 98 1031.7
20260506143439 63 346 5.0 8.0 0.07 0.28 0.28 98 1031.3
20260506142938 63 347 6.0 11.0 0.12 0.28 0.28 98 1031.1
20260506142435 63 20 6.0 13.0 0.14 0.27 0.27 98 1031.2
20260506141933 63 353 4.0 11.0 0.14 0.26 0.26 98 1031.3
20260506141431 63 343 5.0 11.0 0.19 0.25 0.25 98 1031.7
20260506140929 63 278 2.0 7.0 0.14 0.23 0.23 98 1032.1
20260506140426 63 350 7.0 11.0 0.09 0.21 0.21 98 1031.5
20260506135922 64 0 0.0 9.0 0.07 0.20 0.20 98 1031.3
20260506135420 64 19 2.0 7.0 0.07 0.19 0.19 98 1031.0
20260506134915 63 352 0.0 9.0 0.09 0.19 0.19 98 1031.2
20260506134412 64 338 3.0 7.0 0.12 0.18 0.18 97 1030.7
20260506133909 64 0 3.0 7.0 0.14 0.17 0.17 97 1030.6
20260506133406 64 0 3.0 8.0 0.21 0.16 0.16 97 1030.9
20260506132902 64 173 0.0 5.0 0.31 0.14 0.14 97 1030.7
20260506132359 64 127 0.0 6.0 0.21 0.11 0.11 97 1031.1
20260506131858 64 166 0.0 5.0 0.19 0.09 0.09 96 1030.8
20260506131353 65 191 0.0 3.0 0.19 0.07 0.07 96 1031.0
20260506130851 65 12 0.0 5.0 0.17 0.06 0.06 95 1030.7
20260506130347 65 67 3.0 4.0 0.07 0.04 0.04 95 1030.5
20260506125845 65 46 4.0 5.0 0.05 0.03 0.03 95 1030.7
20260506125343 65 20 3.0 6.0 0.02 0.02 0.02 94 1030.3
20260506124841 66 24 7.0 14.0 0.02 0.02 0.02 93 1030.2
20260506124338 66 61 4.0 11.0 0.02 0.02 0.02 92 1030.3
20260506123836 66 3 3.0 8.0 0.02 0.02 0.02 92 1030.2
20260506123334 66 20 5.0 7.0 0.02 0.01 0.01 91 1030.4
20260506122831 66 350 3.0 6.0 0.05 0.01 0.01 90 1030.2
20260506122327 67 24 5.0 6.0 0.02 0.01 0.01 88 1030.0
20260506121826 67 32 3.0 6.0 0.02 0.00 0.00 87 1030.0
20260506121322 68 34 9.0 9.0 0.02 0.00 0.00 85 1029.8
20260506120820 67 31 13.0 17.0 0.00 0.00 0.00 85 1029.5
20260506120318 68 54 6.0 9.0 0.00 0.00 0.00 84 1029.7
20260506115815 68 14 2.0 10.0 0.00 0.00 0.00 83 1029.5
20260506115313 68 42 8.0 8.0 0.00 0.00 0.00 82 1029.4
20260506114810 68 14 1.0 5.0 0.00 0.00 0.00 81 1029.3
20260506114308 69 67 2.0 15.0 0.00 0.00 0.00 79 1029.2
20260506113806 69 0 3.0 16.0 0.00 0.00 0.00 77 1029.1
20260506113304 69 0 4.0 5.0 0.00 0.00 0.00 77 1029.1
20260506112800 69 30 7.0 10.0 0.00 0.00 0.00 76 1029.0
20260506112257 69 50 3.0 5.0 0.00 0.00 0.00 74 1028.7
20260506111754 70 354 5.0 11.0 0.00 0.00 0.00 72 1028.7
20260506111253 70 0 5.0 12.0 0.00 0.00 0.00 72 1028.8
20260506110749 70 6 5.0 9.0 0.00 0.00 0.00 71 1028.6
20260506110247 71 28 5.0 10.0 0.00 0.00 0.00 71 1028.6
20260506105743 71 21 3.0 10.0 0.00 0.00 0.00 69 1028.8
20260506105240 72 338 5.0 17.0 0.00 0.00 0.00 68 1028.8
20260506104738 72 355 3.0 9.0 0.00 0.00 0.00 67 1028.2
20260506104236 72 52 5.0 9.0 0.00 0.00 0.00 67 1028.6
20260506103732 72 21 3.0 8.0 0.00 0.00 0.00 67 1028.5
20260506103230 72 334 4.0 11.0 0.00 0.00 0.00 66 1028.4
20260506102727 72 0 3.0 10.0 0.00 0.00 0.00 66 1028.2
20260506102225 72 15 3.0 15.0 0.00 0.00 0.00 66 1028.0
20260506101722 72 37 12.0 14.0 0.00 0.00 0.00 66 1028.1
20260506101218 72 32 4.0 10.0 0.00 0.00 0.00 65 1027.6
20260506100717 72 341 4.0 8.0 0.00 0.00 0.00 65 1027.6
20260506100214 72 29 7.0 9.0 0.00 0.00 0.00 64 1027.9
20260506095713 72 26 9.0 16.0 0.00 0.00 0.00 64 1027.7
20260506095209 72 24 5.0 10.0 0.00 0.00 0.00 64 1027.7
20260506094706 72 354 7.0 14.0 0.00 0.00 0.00 64 1027.7
20260506094204 71 339 4.0 7.0 0.00 0.00 0.00 65 1027.5
20260506093703 72 22 5.0 9.0 0.00 0.00 0.00 64 1027.5
20260506093159 71 0 6.0 11.0 0.00 0.00 0.00 64 1027.7
20260506092657 71 0 3.0 13.0 0.00 0.00 0.00 64 1027.6
20260506092154 71 356 4.0 8.0 0.00 0.00 0.00 63 1028.0
20260506091652 72 14 3.0 7.0 0.00 0.00 0.00 63 1028.0
20260506091149 71 75 1.0 7.0 0.00 0.00 0.00 63 1027.7
20260506090647 72 21 3.0 8.0 0.00 0.00 0.00 63 1027.6
20260506090143 71 14 3.0 7.0 0.00 0.00 0.00 63 1027.4
20260506085640 72 0 1.0 5.0 0.00 0.00 0.00 63 1027.5
20260506085136 72 354 5.0 5.0 0.00 0.00 0.00 62 1027.7
20260506084633 71 33 4.0 4.0 0.00 0.00 0.00 62 1027.6
20260506084130 72 140 3.0 4.0 0.00 0.00 0.00 62 1027.5
20260506083627 71 0 1.0 8.0 0.00 0.00 0.00 62 1027.2
20260506083125 71 31 4.0 6.0 0.00 0.00 0.00 62 1027.3
20260506082621 71 300 1.0 8.0 0.00 0.00 0.00 61 1027.1